Time,TemperatureF,DewpointF,PressureIn,WindDirection,WindDirectionDegrees,WindSpeedMPH,WindSpeedGustMPH,Humidity,HourlyPrecipIn,Conditions,Clouds,dailyrainin,SolarRadiationWatts/m^2,SoftwareType,DateUTC
2013-02-14 00:00:00,52.2,47.2,29.88,East,90,1.6,1.6,83,0.00,RA,,0.00,0.0,WeatherDisplay:10.37,2013-02-13 22:00:00,
2013-02-14 00:05:00,52.3,47.3,29.87,SSW,202,0.0,0.0,83,0.00,RA,,0.00,0.0,WeatherDisplay:10.37,2013-02-13 22:05:00,
2013-02-14 00:10:00,52.2,47.2,29.87,NE,45,0.0,0.0,83,0.00,RA,,0.00,0.0,WeatherDisplay:10.37,2013-02-13 22:10:00,
2013-02-14 00:15:00,52.2,46.8,29.87,SSE,158,0.0,0.0,82,0.00,RA,,0.00,0.0,WeatherDisplay:10.37,2013-02-13 22:15:00,
2013-02-14 00:20:00,52.3,47.0,29.87,SW,225,3.5,3.5,82,0.00,RA,,0.00,0.0,WeatherDisplay:10.37,2013-02-13 22:20:00,
2013-02-14 00:25:00,52.3,47.0,29.87,SSE,158,4.6,4.6,82,0.00,RA,,0.00,0.0,WeatherDisplay:10.37,2013-02-13 22:25:00,
2013-02-14 00:30:00,52.5,46.9,29.87,SW,225,5.8,5.8,81,0.00,SCT,,0.00,0.0,WeatherDisplay:10.37,2013-02-13 22:30:00,
2013-02-14 00:35:00,52.5,46.5,29.87,SSW,202,5.6,5.6,80,0.00,SCT,,0.00,0.0,WeatherDisplay:10.37,2013-02-13 22:35:00,
2013-02-14 00:40:00,52.7,46.7,29.87,SW,225,4.6,4.6,80,0.00,SCT,,0.00,0.0,WeatherDisplay:10.37,2013-02-13 22:40:00,
2013-02-14 00:45:00,52.7,46.4,29.87,South,180,6.3,6.3,79,0.00,SCT,,0.00,0.0,WeatherDisplay:10.37,2013-02-13 22:45:00,
2013-02-14 00:50:00,52.7,46.0,29.86,South,180,4.6,4.6,78,0.00,SCT,,0.00,0.0,WeatherDisplay:10.37,2013-02-13 22:50:00,
2013-02-14 00:55:00,52.9,45.9,29.86,South,180,3.1,3.1,77,0.00,SCT,,0.00,0.0,WeatherDisplay:10.37,2013-02-13 22:55:00,
2013-02-14 01:00:00,52.9,45.9,29.86,South,180,3.6,3.6,77,0.00,SCT,,0.00,0.0,WeatherDisplay:10.37,2013-02-13 23:00:00,
2013-02-14 01:05:00,52.9,45.9,29.87,South,180,5.8,5.8,77,0.00,BKN,,0.00,0.0,WeatherDisplay:10.37,2013-02-13 23:05:00,
2013-02-14 01:10:00,52.9,45.9,29.86,SSW,202,1.1,1.3,77,0.00,BKN,,0.00,0.0,WeatherDisplay:10.37,2013-02-13 23:10:00,
2013-02-14 01:15:00,52.9,45.9,29.85,SE,135,0.0,0.0,77,0.00,BKN,,0.00,0.0,WeatherDisplay:10.37,2013-02-13 23:15:00,
2013-02-14 01:20:00,52.7,45.7,29.86,South,180,1.1,1.1,77,0.00,BKN,,0.00,0.0,WeatherDisplay:10.37,2013-02-13 23:20:00,
2013-02-14 01:25:00,52.7,45.7,29.85,West,270,10.4,10.4,77,0.00,BKN,,0.00,0.0,WeatherDisplay:10.37,2013-02-13 23:25:00,
2013-02-14 01:30:00,52.9,45.9,29.86,SW,225,4.0,4.0,77,0.00,BKN,,0.00,0.0,WeatherDisplay:10.37,2013-02-13 23:30:00,
2013-02-14 01:35:00,52.9,45.9,29.85,SW,225,4.6,4.6,77,0.00,BKN,,0.00,0.0,WeatherDisplay:10.37,2013-02-13 23:35:00,
2013-02-14 01:41:00,52.9,45.9,29.85,North,0,6.9,0.0,77,0.00,CLR,,0.00,0.0,WeatherDisplay:10.37,2013-02-13 23:41:00,
2013-02-14 01:46:00,52.5,45.2,29.85,South,180,8.1,8.1,76,0.00,BKN,,0.00,0.0,WeatherDisplay:10.37,2013-02-13 23:46:00,
2013-02-14 01:51:00,52.5,44.8,29.85,SSW,202,12.7,12.7,75,0.00,BKN,,0.00,0.0,WeatherDisplay:10.37,2013-02-13 23:51:00,
2013-02-14 01:56:00,52.3,44.3,29.86,SSW,202,6.9,6.9,74,0.00,BKN,,0.00,0.0,WeatherDisplay:10.37,2013-02-13 23:56:00,
2013-02-14 02:01:00,52.3,44.3,29.85,SSW,202,2.3,2.3,74,0.00,BKN,,0.00,0.0,WeatherDisplay:10.37,2013-02-14 00:01:00,
2013-02-14 02:06:00,52.2,44.1,29.85,South,180,3.5,3.5,74,0.00,BKN,,0.00,0.0,WeatherDisplay:10.37,2013-02-14 00:06:00,
2013-02-14 02:11:00,52.0,43.9,29.84,SW,225,1.1,1.1,74,0.00,BKN,,0.00,0.0,WeatherDisplay:10.37,2013-02-14 00:11:00,
2013-02-14 02:16:00,52.0,43.9,29.84,West,270,1.1,1.1,74,0.00,BKN,,0.00,0.0,WeatherDisplay:10.37,2013-02-14 00:16:00,
2013-02-14 02:21:00,51.8,43.8,29.84,NW,315,2.3,0.0,74,0.00,BKN,,0.00,0.0,WeatherDisplay:10.37,2013-02-14 00:21:00,
2013-02-14 02:26:00,51.6,43.6,29.83,NNW,338,3.5,3.5,74,0.00,BKN,,0.00,0.0,WeatherDisplay:10.37,2013-02-14 00:26:00,
2013-02-14 02:31:00,51.6,43.6,29.84,WNW,292,2.3,2.3,74,0.00,BKN,,0.00,0.0,WeatherDisplay:10.37,2013-02-14 00:31:00,
2013-02-14 02:36:00,51.6,43.6,29.84,WSW,248,3.5,3.5,74,0.00,BKN,,0.00,0.0,WeatherDisplay:10.37,2013-02-14 00:36:00,
2013-02-14 02:41:00,51.4,43.1,29.84,South,180,3.5,3.5,73,0.00,BKN,,0.00,0.0,WeatherDisplay:10.37,2013-02-14 00:41:00,
2013-02-14 02:46:00,51.4,43.4,29.84,SSW,202,0.0,0.0,74,0.00,BKN,,0.00,0.0,WeatherDisplay:10.37,2013-02-14 00:46:00,
2013-02-14 02:51:00,51.4,43.4,29.85,South,180,0.0,0.0,74,0.00,BKN,,0.00,0.0,WeatherDisplay:10.37,2013-02-14 00:51:00,
2013-02-14 02:56:00,51.3,43.3,29.85,West,270,3.5,3.5,74,0.00,BKN,,0.00,0.0,WeatherDisplay:10.37,2013-02-14 00:56:00,
2013-02-14 03:01:00,51.3,42.9,29.85,SSW,202,2.3,2.5,73,0.00,BKN,,0.00,0.0,WeatherDisplay:10.37,2013-02-14 01:01:00,
2013-02-14 03:06:00,51.1,42.7,29.86,WSW,248,5.8,5.8,73,0.00,BKN,,0.00,0.0,WeatherDisplay:10.37,2013-02-14 01:06:00,
2013-02-14 03:11:00,50.9,42.9,29.85,SW,225,0.0,0.0,74,0.01,RA,,0.01,0.0,WeatherDisplay:10.37,2013-02-14 01:11:00,
2013-02-14 03:16:00,50.9,42.9,29.85,West,270,3.5,3.5,74,0.01,RA,,0.01,0.0,WeatherDisplay:10.37,2013-02-14 01:16:00,
2013-02-14 03:21:00,50.9,42.9,29.84,WNW,292,3.5,3.6,74,0.01,RA,,0.01,0.0,WeatherDisplay:10.37,2013-02-14 01:21:00,
2013-02-14 03:26:00,50.9,42.9,29.83,WNW,292,2.5,2.5,74,0.01,RA,,0.01,0.0,WeatherDisplay:10.37,2013-02-14 01:26:00,
2013-02-14 03:31:00,50.9,42.9,29.82,WNW,292,2.5,2.5,74,0.01,RA,,0.01,0.0,WeatherDisplay:10.37,2013-02-14 01:31:00,
2013-02-14 03:36:00,50.9,42.9,29.82,WNW,294,2.5,2.5,74,0.01,RA,,0.01,0.0,WeatherDisplay:10.37,2013-02-14 01:36:00,
2013-02-14 03:41:00,50.9,42.9,29.81,WNW,294,2.3,2.5,74,0.01,BKN,,0.01,0.0,WeatherDisplay:10.37,2013-02-14 01:41:00,
2013-02-14 03:46:00,50.9,42.9,29.82,WNW,294,2.5,2.5,74,0.01,BKN,,0.01,0.0,WeatherDisplay:10.37,2013-02-14 01:46:00,
2013-02-14 03:52:00,50.9,42.9,29.82,WNW,294,2.3,2.3,74,0.01,BKN,,0.00,0.0,WeatherDisplay:10.37,2013-02-14 01:52:00,
2013-02-14 03:57:00,49.6,43.1,29.83,South,180,2.3,2.3,78,0.02,RA,,0.02,0.0,WeatherDisplay:10.37,2013-02-14 01:57:00,
2013-02-14 04:02:00,49.6,43.4,29.83,SSE,158,2.7,2.7,79,0.02,RA,,0.02,0.0,WeatherDisplay:10.37,2013-02-14 02:02:00,
2013-02-14 04:07:00,49.6,43.4,29.83,ESE,112,4.0,4.0,79,0.02,RA,,0.02,0.0,WeatherDisplay:10.37,2013-02-14 02:07:00,
2013-02-14 04:12:00,49.6,43.7,29.83,SE,135,1.6,1.6,80,0.02,RA,,0.02,0.0,WeatherDisplay:10.37,2013-02-14 02:12:00,
2013-02-14 04:17:00,49.6,43.7,29.83,SE,135,0.0,0.0,80,0.02,-RA,,0.02,0.0,WeatherDisplay:10.37,2013-02-14 02:17:00,
2013-02-14 04:22:00,49.1,43.2,29.83,ENE,68,0.0,0.0,80,0.02,-RA,,0.02,0.0,WeatherDisplay:10.37,2013-02-14 02:22:00,
2013-02-14 04:27:00,49.1,43.5,29.83,NNW,338,0.0,0.0,81,0.02,-RA,,0.03,0.0,WeatherDisplay:10.37,2013-02-14 02:27:00,
2013-02-14 04:32:00,48.9,43.3,29.83,North,0,0.0,0.0,81,0.03,-RA,,0.04,0.0,WeatherDisplay:10.37,2013-02-14 02:32:00,
2013-02-14 04:37:00,48.9,43.3,29.83,East,90,0.0,0.0,81,0.04,-RA,,0.04,0.0,WeatherDisplay:10.37,2013-02-14 02:37:00,
2013-02-14 04:42:00,48.9,43.3,29.83,SW,225,0.0,0.0,81,0.04,-RA,,0.04,0.0,WeatherDisplay:10.37,2013-02-14 02:42:00,
2013-02-14 04:47:00,48.9,43.3,29.83,WSW,248,0.0,0.0,81,0.04,-RA,,0.05,0.0,WeatherDisplay:10.37,2013-02-14 02:47:00,
2013-02-14 04:52:00,48.9,43.7,29.84,WSW,248,0.0,0.0,82,0.05,-RA,,0.06,0.0,WeatherDisplay:10.37,2013-02-14 02:52:00,
2013-02-14 04:57:00,48.9,43.7,29.82,North,0,4.6,4.6,82,0.05,-RA,,0.07,0.0,WeatherDisplay:10.37,2013-02-14 02:57:00,
2013-02-14 05:02:00,48.7,43.8,29.82,NNW,338,3.5,3.5,83,0.06,RA,,0.08,0.0,WeatherDisplay:10.37,2013-02-14 03:02:00,
2013-02-14 05:07:00,48.7,43.8,29.83,NNW,338,3.5,3.5,83,0.06,RA,,0.08,0.0,WeatherDisplay:10.37,2013-02-14 03:07:00,
2013-02-14 05:12:00,48.7,43.8,29.83,NNW,338,3.5,3.5,83,0.06,RA,,0.08,0.0,WeatherDisplay:10.37,2013-02-14 03:12:00,
2013-02-14 05:17:00,48.7,43.8,29.83,NNW,339,3.5,3.5,83,0.06,RA,,0.08,0.0,WeatherDisplay:10.37,2013-02-14 03:17:00,
2013-02-14 05:22:00,48.7,43.8,29.82,NNW,339,3.5,3.5,83,0.06,RA,,0.08,0.0,WeatherDisplay:10.37,2013-02-14 03:22:00,
2013-02-14 05:27:00,48.7,43.8,29.81,NNW,339,3.5,3.5,83,0.05,RA,,0.08,0.0,WeatherDisplay:10.37,2013-02-14 03:27:00,
2013-02-14 05:32:00,48.7,43.8,29.81,NNW,339,3.5,3.5,83,0.05,-RA,,0.08,0.0,WeatherDisplay:10.37,2013-02-14 03:32:00,
2013-02-14 05:37:00,48.7,43.8,29.81,NNW,339,3.5,3.5,83,0.04,-RA,,0.08,0.0,WeatherDisplay:10.37,2013-02-14 03:37:00,
2013-02-14 05:42:00,48.7,43.8,29.81,NNW,339,3.5,3.5,83,0.04,-RA,,0.08,0.0,WeatherDisplay:10.37,2013-02-14 03:42:00,
2013-02-14 05:47:00,48.7,43.8,29.81,NNW,339,3.5,3.5,83,0.04,-RA,,0.08,0.0,WeatherDisplay:10.37,2013-02-14 03:47:00,
2013-02-14 05:52:00,48.7,43.8,29.81,NNW,339,3.5,3.5,83,0.03,-RA,,0.08,0.0,WeatherDisplay:10.37,2013-02-14 03:52:00,
2013-02-14 05:57:00,48.7,43.8,29.80,NNW,339,3.5,3.5,83,0.01,-RA,,0.08,0.0,WeatherDisplay:10.37,2013-02-14 03:57:00,
2013-02-14 06:02:00,48.7,43.8,29.80,NNW,339,3.5,3.5,83,0.00,BKN,,0.08,0.0,WeatherDisplay:10.37,2013-02-14 04:02:00,
2013-02-14 06:07:00,48.7,43.8,29.80,NNW,339,3.5,3.5,83,0.00,BKN,,0.08,0.0,WeatherDisplay:10.37,2013-02-14 04:07:00,
2013-02-14 06:12:00,48.7,43.8,29.80,NNW,339,3.5,3.5,83,0.00,BKN,,0.08,0.0,WeatherDisplay:10.37,2013-02-14 04:12:00,
2013-02-14 06:17:00,48.7,43.8,29.80,NNW,339,3.5,3.5,83,0.00,BKN,,0.08,0.0,WeatherDisplay:10.37,2013-02-14 04:17:00,
2013-02-14 06:22:00,48.7,43.8,29.80,NNW,339,3.5,3.5,83,0.00,BKN,,0.08,0.0,WeatherDisplay:10.37,2013-02-14 04:22:00,
2013-02-14 06:27:00,48.7,43.8,29.80,NNW,339,3.5,3.5,83,0.00,BKN,,0.08,0.0,WeatherDisplay:10.37,2013-02-14 04:27:00,
2013-02-14 06:32:00,48.7,43.8,29.79,NNW,339,3.5,3.5,83,0.00,BKN,,0.08,0.0,WeatherDisplay:10.37,2013-02-14 04:32:00,
2013-02-14 06:37:00,48.7,43.8,29.80,NNW,339,3.5,3.5,83,0.00,BKN,,0.08,0.0,WeatherDisplay:10.37,2013-02-14 04:37:00,
2013-02-14 06:42:00,48.7,43.8,29.80,NNW,339,3.5,3.5,83,0.00,BKN,,0.08,0.0,WeatherDisplay:10.37,2013-02-14 04:42:00,
2013-02-14 06:47:00,48.7,43.8,29.80,NNW,339,3.5,3.5,83,0.00,BKN,,0.08,0.0,WeatherDisplay:10.37,2013-02-14 04:47:00,
2013-02-14 06:52:00,48.7,43.8,29.79,NNW,339,3.5,3.5,83,0.00,BKN,,0.08,0.0,WeatherDisplay:10.37,2013-02-14 04:52:00,
2013-02-14 06:57:00,48.7,43.8,29.79,NNW,339,3.5,3.5,83,0.00,BKN,,0.08,0.0,WeatherDisplay:10.37,2013-02-14 04:57:00,
2013-02-14 07:00:00,48.7,43.8,29.79,NNW,339,3.5,3.5,83,0.00,BKN,,0.08,0.0,WeatherDisplay:10.37,2013-02-14 05:00:00,
2013-02-14 07:05:00,48.7,43.8,29.79,NNW,339,3.0,3.0,83,0.00,BKN,,0.08,0.0,WeatherDisplay:10.37,2013-02-14 05:05:00,
2013-02-14 07:10:00,47.8,43.5,29.79,North,0,2.3,2.3,85,0.01,RA,,0.09,0.0,WeatherDisplay:10.37,2013-02-14 05:10:00,
2013-02-14 07:15:00,47.8,43.5,29.79,North,357,0.0,0.0,85,0.00,RA,,0.09,0.0,WeatherDisplay:10.37,2013-02-14 05:15:00,
2013-02-14 07:20:00,47.8,43.5,29.79,NNW,338,1.1,0.0,85,0.01,-RA,,0.09,0.0,WeatherDisplay:10.37,2013-02-14 05:20:00,
2013-02-14 07:25:00,47.8,43.5,29.79,NNW,338,0.0,0.0,85,0.01,-RA,,0.09,0.0,WeatherDisplay:10.37,2013-02-14 05:25:00,
2013-02-14 07:30:00,47.8,43.5,29.79,NNW,338,0.0,0.0,85,0.00,-RA,,0.09,0.0,WeatherDisplay:10.37,2013-02-14 05:30:00,
2013-02-14 07:35:00,47.8,43.5,29.79,NNW,339,0.0,0.0,85,0.01,RA,,0.09,0.0,WeatherDisplay:10.37,2013-02-14 05:35:00,
2013-02-14 07:40:00,47.8,43.5,29.79,NNW,339,0.0,0.0,85,0.00,OVC,,0.09,0.0,WeatherDisplay:10.37,2013-02-14 05:40:00,
2013-02-14 07:45:00,47.8,43.5,29.79,NNW,339,0.0,0.0,85,0.01,OVC,,0.09,0.0,WeatherDisplay:10.37,2013-02-14 05:45:00,
2013-02-14 07:50:00,47.8,43.5,29.79,NNW,339,0.0,0.0,85,0.01,OVC,,0.09,0.0,WeatherDisplay:10.37,2013-02-14 05:50:00,
2013-02-14 07:55:00,48.0,43.7,29.78,NE,45,1.1,0.0,85,0.01,OVC,,0.09,0.0,WeatherDisplay:10.37,2013-02-14 05:55:00,
2013-02-14 08:00:00,48.0,43.7,29.78,ENE,68,3.5,3.5,85,0.01,OVC,,0.09,0.0,WeatherDisplay:10.37,2013-02-14 06:00:00,
2013-02-14 08:05:00,47.8,43.5,29.79,NNW,338,1.1,1.1,85,0.01,OVC,,0.09,0.0,WeatherDisplay:10.37,2013-02-14 06:05:00,
2013-02-14 08:10:00,47.9,43.6,29.79,NNE,30,0.0,2.0,85,0.00,OVC,,0.09,0.0,WeatherDisplay:10.37,2013-02-14 06:10:00,
2013-02-14 08:15:00,47.8,43.5,29.80,NNE,18,1.0,3.0,85,0.00,RA,,0.09,0.0,WeatherDisplay:10.37,2013-02-14 06:15:00,
2013-02-14 08:20:00,47.8,43.5,29.79,NNE,22,0.0,0.7,85,0.01,RA,,0.09,0.0,WeatherDisplay:10.37,2013-02-14 06:20:00,
2013-02-14 08:25:00,47.9,43.6,29.79,NNE,27,0.0,2.0,85,0.00,RA,,0.09,0.0,WeatherDisplay:10.37,2013-02-14 06:25:00,
2013-02-14 08:30:00,48.0,43.7,29.80,East,90,1.1,1.1,85,0.01,RA,,0.10,0.0,WeatherDisplay:10.37,2013-02-14 06:30:00,
2013-02-14 08:35:00,48.0,43.7,29.80,North,0,3.8,3.8,85,0.01,-RA,,0.10,0.0,WeatherDisplay:10.37,2013-02-14 06:35:00,
2013-02-14 08:40:00,48.0,43.7,29.79,North,0,2.3,2.3,85,0.01,-RA,,0.10,0.0,WeatherDisplay:10.37,2013-02-14 06:40:00,
2013-02-14 08:45:00,48.0,43.7,29.78,NNE,22,1.1,0.0,85,0.01,-RA,,0.10,0.0,WeatherDisplay:10.37,2013-02-14 06:45:00,
2013-02-14 08:50:00,48.0,43.7,29.79,North,349,0.0,0.0,85,0.00,-RA,,0.10,0.0,WeatherDisplay:10.37,2013-02-14 06:50:00,
2013-02-14 08:55:00,48.1,43.8,29.78,North,4,0.0,2.0,85,0.00,-RA,,0.10,0.0,WeatherDisplay:10.37,2013-02-14 06:55:00,
2013-02-14 09:00:00,48.2,43.6,29.77,NNW,338,1.1,0.0,84,0.01,-RA,,0.10,0.0,WeatherDisplay:10.37,2013-02-14 07:00:00,
2013-02-14 09:05:00,48.4,43.8,29.77,East,90,1.3,1.3,84,0.01,-RA,,0.10,0.0,WeatherDisplay:10.37,2013-02-14 07:05:00,
2013-02-14 09:10:00,48.4,43.8,29.78,NE,53,1.0,3.0,84,0.00,-RA,,0.10,0.0,WeatherDisplay:10.37,2013-02-14 07:10:00,
2013-02-14 09:15:00,48.6,43.9,29.77,ENE,59,0.0,1.0,84,0.00,-RA,,0.10,0.0,WeatherDisplay:10.37,2013-02-14 07:15:00,
2013-02-14 09:20:00,48.6,43.9,29.77,ENE,68,0.0,0.0,84,0.01,-RA,,0.10,0.0,WeatherDisplay:10.37,2013-02-14 07:20:00,
2013-02-14 09:25:00,48.7,44.1,29.78,East,81,0.0,2.0,84,0.00,-RA,,0.10,0.0,WeatherDisplay:10.37,2013-02-14 07:25:00,
2013-02-14 09:30:00,48.7,44.1,29.78,ENE,68,0.0,0.0,84,0.01,-RA,,0.10,0.0,WeatherDisplay:10.37,2013-02-14 07:30:00,
2013-02-14 09:35:00,48.7,44.1,29.78,ESE,112,0.0,0.2,84,0.00,OVC,,0.10,0.0,WeatherDisplay:10.37,2013-02-14 07:35:00,
2013-02-14 09:40:00,48.9,44.2,29.78,ENE,75,0.0,2.0,84,0.00,OVC,,0.10,0.0,WeatherDisplay:10.37,2013-02-14 07:40:00,
2013-02-14 09:45:00,48.9,44.3,29.78,NE,45,3.5,3.5,84,0.00,OVC,,0.10,0.0,WeatherDisplay:10.37,2013-02-14 07:45:00,
2013-02-14 09:50:00,48.7,44.1,29.77,ENE,68,2.3,2.3,84,0.00,OVC,,0.10,0.0,WeatherDisplay:10.37,2013-02-14 07:50:00,
2013-02-14 09:55:00,48.7,44.1,29.77,ENE,60,2.0,5.0,84,0.00,OVC,,0.10,0.0,WeatherDisplay:10.37,2013-02-14 07:55:00,
2013-02-14 10:00:00,48.7,44.1,29.77,ENE,68,2.3,2.3,84,0.00,OVC,,0.10,0.0,WeatherDisplay:10.37,2013-02-14 08:00:00,
2013-02-14 10:05:00,48.7,44.1,29.77,NNE,22,3.5,3.5,84,0.00,OVC,,0.10,0.0,WeatherDisplay:10.37,2013-02-14 08:05:00,
2013-02-14 10:10:00,48.7,44.1,29.77,NE,45,9.2,9.2,84,0.00,OVC,,0.10,0.0,WeatherDisplay:10.37,2013-02-14 08:10:00,
2013-02-14 10:15:00,48.7,44.1,29.77,NE,49,10.0,10.0,84,0.00,OVC,,0.10,0.0,WeatherDisplay:10.37,2013-02-14 08:15:00,
2013-02-14 10:20:00,48.7,44.1,29.77,SE,135,10.4,10.4,84,0.00,OVC,,0.10,0.0,WeatherDisplay:10.37,2013-02-14 08:20:00,
2013-02-14 10:25:00,48.6,43.9,29.77,ENE,60,1.0,5.0,84,0.00,OVC,,0.10,0.0,WeatherDisplay:10.37,2013-02-14 08:25:00,
2013-02-14 10:30:00,48.4,43.8,29.77,NE,45,10.4,10.4,84,0.00,OVC,,0.10,0.0,WeatherDisplay:10.37,2013-02-14 08:30:00,
2013-02-14 10:35:00,48.6,43.9,29.77,ENE,63,3.0,4.0,84,0.00,OVC,,0.10,0.0,WeatherDisplay:10.37,2013-02-14 08:35:00,
2013-02-14 10:40:00,48.6,43.9,29.77,NNE,22,3.5,3.5,84,0.01,RA,,0.10,0.0,WeatherDisplay:10.37,2013-02-14 08:40:00,
2013-02-14 10:45:00,48.4,43.8,29.77,NE,48,2.0,6.0,84,0.00,RA,,0.10,0.0,WeatherDisplay:10.37,2013-02-14 08:45:00,
2013-02-14 10:50:00,48.4,43.8,29.76,ENE,68,6.9,6.9,84,0.01,RA,,0.11,0.0,WeatherDisplay:10.37,2013-02-14 08:50:00,
2013-02-14 10:55:00,48.4,43.8,29.76,North,0,4.6,4.6,84,0.01,RA,,0.11,0.0,WeatherDisplay:10.37,2013-02-14 08:55:00,
2013-02-14 11:00:00,48.2,43.6,29.76,NE,45,6.9,6.9,84,0.02,RA,,0.11,0.0,WeatherDisplay:10.37,2013-02-14 09:00:00,
2013-02-14 11:05:00,48.0,43.4,29.76,NE,48,3.0,7.0,84,0.02,RA,,0.12,0.0,WeatherDisplay:10.37,2013-02-14 09:05:00,
2013-02-14 11:10:00,48.0,43.4,29.76,North,0,0.0,0.0,84,0.03,RA,,0.13,0.0,WeatherDisplay:10.37,2013-02-14 09:10:00,
2013-02-14 11:15:00,47.8,43.2,29.76,NNW,338,11.5,11.5,84,0.04,RA,,0.15,0.0,WeatherDisplay:10.37,2013-02-14 09:15:00,
2013-02-14 11:20:00,47.5,42.9,29.76,NNW,338,2.7,3.6,84,0.05,RA,,0.16,0.0,WeatherDisplay:10.37,2013-02-14 09:20:00,
2013-02-14 11:25:00,47.3,42.7,29.75,ENE,68,4.7,4.7,84,0.06,RA,,0.16,0.0,WeatherDisplay:10.37,2013-02-14 09:25:00,
2013-02-14 11:30:00,47.4,43.1,29.75,NE,51,2.0,9.0,85,0.00,RA,,0.17,0.0,WeatherDisplay:10.37,2013-02-14 09:30:00,
2013-02-14 11:35:00,47.3,43.0,29.76,NE,45,3.5,3.5,85,0.07,-RA,,0.17,0.0,WeatherDisplay:10.37,2013-02-14 09:35:00,
2013-02-14 11:40:00,47.3,43.0,29.75,ESE,112,9.2,9.2,85,0.07,-RA,,0.17,0.0,WeatherDisplay:10.37,2013-02-14 09:40:00,
2013-02-14 11:45:00,47.5,43.2,29.75,ESE,112,5.8,5.8,85,0.07,-RA,,0.17,0.0,WeatherDisplay:10.37,2013-02-14 09:45:00,
2013-02-14 11:50:00,47.5,43.2,29.75,NNW,338,10.7,10.7,85,0.07,-RA,,0.18,0.0,WeatherDisplay:10.37,2013-02-14 09:50:00,
2013-02-14 11:55:00,47.7,43.4,29.75,ENE,68,2.3,2.3,85,0.07,-RA,,0.18,0.0,WeatherDisplay:10.37,2013-02-14 09:55:00,
2013-02-14 12:00:00,47.8,43.5,29.75,NE,45,2.3,2.3,85,0.07,-RA,,0.19,0.0,WeatherDisplay:10.37,2013-02-14 10:00:00,
2013-02-14 12:05:00,47.8,43.5,29.75,NNE,21,0.0,1.0,85,0.00,-RA,,0.19,0.0,WeatherDisplay:10.37,2013-02-14 10:05:00,
2013-02-14 12:10:00,47.8,43.5,29.75,ENE,68,3.6,3.6,85,0.06,-RA,,0.20,0.0,WeatherDisplay:10.37,2013-02-14 10:10:00,
2013-02-14 12:15:00,47.8,43.5,29.76,NNE,22,0.9,0.9,85,0.06,-RA,,0.20,0.0,WeatherDisplay:10.37,2013-02-14 10:15:00,
2013-02-14 12:20:00,47.8,43.5,29.76,ENE,68,3.5,3.5,85,0.06,-RA,,0.22,0.0,WeatherDisplay:10.37,2013-02-14 10:20:00,
2013-02-14 12:25:00,47.8,43.5,29.75,ENE,68,1.1,1.1,85,0.06,-RA,,0.22,0.0,WeatherDisplay:10.37,2013-02-14 10:25:00,
2013-02-14 12:30:00,48.0,43.7,29.75,NE,45,0.0,0.4,85,0.06,-RA,,0.23,0.0,WeatherDisplay:10.37,2013-02-14 10:30:00,
2013-02-14 12:35:00,48.0,43.7,29.75,North,0,4.6,4.6,85,0.06,-RA,,0.24,0.0,WeatherDisplay:10.37,2013-02-14 10:35:00,
2013-02-14 12:40:00,48.0,43.7,29.75,ENE,68,3.5,3.5,85,0.07,-RA,,0.24,0.0,WeatherDisplay:10.37,2013-02-14 10:40:00,
2013-02-14 12:45:00,48.0,43.7,29.75,ENE,68,2.3,2.3,85,0.08,-RA,,0.25,0.0,WeatherDisplay:10.37,2013-02-14 10:45:00,
2013-02-14 12:50:00,48.0,43.7,29.75,East,90,4.6,4.6,85,0.07,-RA,,0.25,0.0,WeatherDisplay:10.37,2013-02-14 10:50:00,
2013-02-14 12:55:00,48.0,43.7,29.75,NNW,338,3.6,3.6,85,0.08,-RA,,0.26,0.0,WeatherDisplay:10.37,2013-02-14 10:55:00,
2013-02-14 13:00:00,48.0,43.7,29.74,North,0,6.0,6.0,85,0.08,-RA,,0.26,0.0,WeatherDisplay:10.37,2013-02-14 11:00:00,
2013-02-14 13:05:00,48.0,44.0,29.74,NNE,19,1.0,6.0,86,0.00,-RA,,0.26,0.0,WeatherDisplay:10.37,2013-02-14 11:05:00,
2013-02-14 13:10:00,48.2,44.2,29.74,North,0,3.5,3.5,86,0.06,-RA,,0.26,0.0,WeatherDisplay:10.37,2013-02-14 11:10:00,
2013-02-14 13:15:00,48.2,43.9,29.73,North,0,5.8,5.8,85,0.05,-RA,,0.26,0.0,WeatherDisplay:10.37,2013-02-14 11:15:00,
2013-02-14 13:20:00,48.2,43.9,29.73,NE,45,4.7,4.7,85,0.05,-RA,,0.26,0.0,WeatherDisplay:10.37,2013-02-14 11:20:00,
2013-02-14 13:25:00,48.4,44.1,29.73,NNW,338,6.9,6.9,85,0.04,-RA,,0.26,0.0,WeatherDisplay:10.37,2013-02-14 11:25:00,
2013-02-14 13:30:00,48.4,44.1,29.72,NNE,22,3.5,3.5,85,0.04,-RA,,0.27,0.0,WeatherDisplay:10.37,2013-02-14 11:30:00,
2013-02-14 13:35:00,48.4,44.1,29.73,NNE,28,3.0,8.0,85,0.00,-RA,,0.27,0.0,WeatherDisplay:10.37,2013-02-14 11:35:00,
2013-02-14 13:40:00,48.6,44.3,29.72,NNW,338,5.1,5.1,85,0.03,-RA,,0.27,0.0,WeatherDisplay:10.37,2013-02-14 11:40:00,
2013-02-14 13:45:00,48.4,44.1,29.72,NNW,338,6.9,6.9,85,0.02,-RA,,0.27,0.0,WeatherDisplay:10.37,2013-02-14 11:45:00,
2013-02-14 13:50:00,48.4,44.1,29.72,NNE,18,3.0,6.0,85,0.00,-RA,,0.27,0.0,WeatherDisplay:10.37,2013-02-14 11:50:00,
2013-02-14 13:55:00,48.4,44.1,29.72,North,0,4.6,4.6,85,0.02,-RA,,0.27,0.0,WeatherDisplay:10.37,2013-02-14 11:55:00,
2013-02-14 14:00:00,48.6,44.3,29.71,ENE,68,4.7,4.7,85,0.02,-RA,,0.27,0.0,WeatherDisplay:10.37,2013-02-14 12:00:00,
2013-02-14 14:05:00,48.4,44.1,29.71,North,0,3.5,3.5,85,0.02,-RA,,0.27,0.0,WeatherDisplay:10.37,2013-02-14 12:05:00,
2013-02-14 14:10:00,48.6,44.3,29.70,North,0,5.8,5.8,85,0.02,-RA,,0.27,0.0,WeatherDisplay:10.37,2013-02-14 12:10:00,
2013-02-14 14:15:00,48.7,44.4,29.70,NNW,338,3.5,3.5,85,0.02,-RA,,0.27,0.0,WeatherDisplay:10.37,2013-02-14 12:15:00,
2013-02-14 14:20:00,48.7,44.4,29.70,NNE,15,2.0,6.0,85,0.00,-RA,,0.27,0.0,WeatherDisplay:10.37,2013-02-14 12:20:00,
2013-02-14 14:25:00,48.7,44.4,29.69,NE,45,5.8,5.8,85,0.01,-RA,,0.27,0.0,WeatherDisplay:10.37,2013-02-14 12:25:00,
2013-02-14 14:30:00,48.7,44.4,29.69,NNE,22,3.5,3.5,85,0.01,-RA,,0.27,0.0,WeatherDisplay:10.37,2013-02-14 12:30:00,
2013-02-14 14:35:00,48.7,44.4,29.70,NNE,25,1.0,6.0,85,0.00,-RA,,0.27,0.0,WeatherDisplay:10.37,2013-02-14 12:35:00,
2013-02-14 14:40:00,48.9,44.6,29.70,East,90,3.5,3.5,85,0.01,-RA,,0.28,0.0,WeatherDisplay:10.37,2013-02-14 12:40:00,
2013-02-14 14:45:00,48.9,44.6,29.70,NE,39,0.0,4.0,85,0.00,-RA,,0.28,0.0,WeatherDisplay:10.37,2013-02-14 12:45:00,
2013-02-14 14:50:00,48.9,26.8,29.70,ENE,68,1.8,1.8,42,0.01,-RA,,0.28,0.0,WeatherDisplay:10.37,2013-02-14 12:50:00,
2013-02-14 14:55:00,48.9,44.6,29.70,NW,315,2.3,2.3,85,0.01,-RA,,0.28,0.0,WeatherDisplay:10.37,2013-02-14 12:55:00,
2013-02-14 15:00:00,48.9,44.3,29.70,NW,315,1.1,1.1,84,0.01,-RA,,0.28,0.0,WeatherDisplay:10.37,2013-02-14 13:00:00,
2013-02-14 15:05:00,48.9,44.3,29.69,North,2,0.0,2.0,84,0.00,-RA,,0.28,0.0,WeatherDisplay:10.37,2013-02-14 13:05:00,
2013-02-14 15:10:00,49.0,44.4,29.70,North,358,0.0,0.0,84,0.00,-RA,,0.28,0.0,WeatherDisplay:10.37,2013-02-14 13:10:00,
2013-02-14 15:15:00,49.2,44.6,29.70,NW,317,0.0,1.0,84,0.00,-RA,,0.28,0.0,WeatherDisplay:10.37,2013-02-14 13:15:00,
2013-02-14 15:20:00,49.1,44.5,29.70,West,281,0.0,0.0,84,0.00,OVC,,0.28,0.0,WeatherDisplay:10.37,2013-02-14 13:20:00,
2013-02-14 15:25:00,49.3,44.6,29.69,WNW,292,0.0,0.0,84,0.00,OVC,,0.28,0.0,WeatherDisplay:10.37,2013-02-14 13:25:00,
2013-02-14 15:30:00,49.3,44.6,29.69,WNW,288,0.0,0.0,84,0.00,RA,,0.28,0.0,WeatherDisplay:10.37,2013-02-14 13:30:00,
2013-02-14 15:35:00,49.3,44.6,29.69,NW,310,0.0,2.0,84,0.00,RA,,0.28,0.0,WeatherDisplay:10.37,2013-02-14 13:35:00,
2013-02-14 15:40:00,49.3,44.3,29.69,NNW,334,1.0,2.0,83,0.00,RA,,0.28,0.0,WeatherDisplay:10.37,2013-02-14 13:40:00,
2013-02-14 15:45:00,49.2,44.3,29.69,NNW,332,1.0,3.0,83,0.00,RA,,0.29,0.0,WeatherDisplay:10.37,2013-02-14 13:45:00,
2013-02-14 15:50:00,49.1,44.2,29.69,NNE,27,1.0,5.0,83,0.00,RA,,0.29,0.0,WeatherDisplay:10.37,2013-02-14 13:50:00,
2013-02-14 15:55:00,49.1,44.2,29.69,NNE,25,0.0,2.0,83,0.00,RA,,0.29,0.0,WeatherDisplay:10.37,2013-02-14 13:55:00,
2013-02-14 16:00:00,49.1,44.2,29.69,WNW,292,0.0,0.0,83,0.02,RA,,0.30,0.0,WeatherDisplay:10.37,2013-02-14 14:00:00,
2013-02-14 16:05:00,49.1,44.2,29.69,SW,225,0.0,1.0,83,0.00,RA,,0.29,0.0,WeatherDisplay:10.37,2013-02-14 14:05:00,
2013-02-14 16:10:00,49.1,44.2,29.69,East,98,0.0,0.0,83,0.00,RA,,0.30,0.0,WeatherDisplay:10.37,2013-02-14 14:10:00,
2013-02-14 16:15:00,48.9,44.0,29.69,NW,316,0.0,0.0,83,0.00,RA,,0.30,0.0,WeatherDisplay:10.37,2013-02-14 14:15:00,
2013-02-14 16:20:00,48.9,44.0,29.69,WNW,301,0.0,0.0,83,0.00,-RA,,0.30,0.0,WeatherDisplay:10.37,2013-02-14 14:20:00,
2013-02-14 16:25:00,48.9,43.9,29.68,WNW,299,0.0,2.0,83,0.00,-RA,,0.31,0.0,WeatherDisplay:10.37,2013-02-14 14:25:00,
2013-02-14 16:30:00,48.7,43.8,29.68,WSW,250,0.0,0.0,83,0.00,-RA,,0.31,0.0,WeatherDisplay:10.37,2013-02-14 14:30:00,
2013-02-14 16:35:00,48.7,43.8,29.68,SSW,208,0.0,2.0,83,0.00,-RA,,0.31,0.0,WeatherDisplay:10.37,2013-02-14 14:35:00,
2013-02-14 16:40:00,48.7,43.8,29.68,SE,135,0.0,0.0,83,0.03,-RA,,0.31,0.0,WeatherDisplay:10.37,2013-02-14 14:40:00,
2013-02-14 16:45:00,48.7,43.8,29.68,WNW,292,1.0,4.0,83,0.00,-RA,,0.31,0.0,WeatherDisplay:10.37,2013-02-14 14:45:00,
2013-02-14 16:50:00,48.6,43.6,29.68,WSW,248,3.5,3.5,83,0.02,-RA,,0.31,0.0,WeatherDisplay:10.37,2013-02-14 14:50:00,
2013-02-14 16:55:00,48.4,43.1,29.68,West,270,1.1,1.1,82,0.02,-RA,,0.31,0.0,WeatherDisplay:10.37,2013-02-14 14:55:00,
2013-02-14 17:00:00,48.2,43.0,29.68,WSW,248,3.5,3.5,82,0.02,-RA,,0.31,0.0,WeatherDisplay:10.37,2013-02-14 15:00:00,
2013-02-14 17:05:00,48.0,42.8,29.68,NW,308,3.0,6.0,82,0.00,-RA,,0.31,0.0,WeatherDisplay:10.37,2013-02-14 15:05:00,
2013-02-14 17:10:00,48.0,42.8,29.68,NW,306,2.0,6.0,82,0.00,-RA,,0.31,0.0,WeatherDisplay:10.37,2013-02-14 15:10:00,
2013-02-14 17:15:00,47.8,42.6,29.68,WNW,299,1.0,6.0,82,0.00,-RA,,0.32,0.0,WeatherDisplay:10.37,2013-02-14 15:15:00,
2013-02-14 17:20:00,47.8,42.6,29.67,NW,304,2.0,6.0,82,0.00,-RA,,0.32,0.0,WeatherDisplay:10.37,2013-02-14 15:20:00,
2013-02-14 17:25:00,47.7,42.4,29.67,NW,308,2.0,6.0,82,0.00,-RA,,0.32,0.0,WeatherDisplay:10.37,2013-02-14 15:25:00,
2013-02-14 17:30:00,47.5,42.3,29.67,NW,310,2.0,5.0,82,0.00,-RA,,0.32,0.0,WeatherDisplay:10.37,2013-02-14 15:30:00,
2013-02-14 17:35:00,47.5,42.6,29.68,NW,305,2.0,7.0,83,0.00,-RA,,0.32,0.0,WeatherDisplay:10.37,2013-02-14 15:35:00,
2013-02-14 17:40:00,47.5,42.6,29.68,NW,306,3.0,5.0,83,0.00,-RA,,0.32,0.0,WeatherDisplay:10.37,2013-02-14 15:40:00,
2013-02-14 17:45:00,47.3,42.4,29.68,WNW,301,1.0,7.0,83,0.00,-RA,,0.32,0.0,WeatherDisplay:10.37,2013-02-14 15:45:00,
2013-02-14 17:50:00,47.3,42.4,29.68,WNW,300,1.0,5.0,83,0.00,-RA,,0.32,0.0,WeatherDisplay:10.37,2013-02-14 15:50:00,
2013-02-14 17:55:00,47.1,42.2,29.67,NW,305,1.0,4.0,83,0.00,-RA,,0.32,0.0,WeatherDisplay:10.37,2013-02-14 15:55:00,
2013-02-14 18:00:00,47.1,42.2,29.67,West,270,3.5,3.5,83,0.01,-RA,,0.32,0.0,WeatherDisplay:10.37,2013-02-14 16:00:00,
2013-02-14 18:05:00,47.1,42.2,29.67,NW,309,1.0,5.0,83,0.00,-RA,,0.32,0.0,WeatherDisplay:10.37,2013-02-14 16:05:00,
2013-02-14 18:10:00,46.9,42.0,29.66,WNW,299,0.0,3.0,83,0.00,-RA,,0.32,0.0,WeatherDisplay:10.37,2013-02-14 16:10:00,
2013-02-14 18:15:00,46.9,42.4,29.67,WNW,299,1.0,4.0,84,0.00,-RA,,0.32,0.0,WeatherDisplay:10.37,2013-02-14 16:15:00,
2013-02-14 18:20:00,46.9,42.4,29.66,WNW,292,1.0,4.0,84,0.00,-RA,,0.32,0.0,WeatherDisplay:10.37,2013-02-14 16:20:00,
2013-02-14 18:25:00,46.8,42.2,29.67,WNW,285,1.0,6.0,84,0.00,-RA,,0.32,0.0,WeatherDisplay:10.37,2013-02-14 16:25:00,
2013-02-14 18:30:00,46.8,42.2,29.67,WNW,291,1.0,7.0,84,0.00,-RA,,0.32,0.0,WeatherDisplay:10.37,2013-02-14 16:30:00,
2013-02-14 18:35:00,46.8,42.2,29.66,WNW,298,2.0,7.0,84,0.00,-RA,,0.32,0.0,WeatherDisplay:10.37,2013-02-14 16:35:00,
2013-02-14 18:40:00,46.8,42.2,29.66,NNW,338,4.0,4.0,84,0.01,-RA,,0.33,0.0,WeatherDisplay:10.37,2013-02-14 16:40:00,
2013-02-14 18:45:00,46.8,42.2,29.66,WNW,290,2.0,5.0,84,0.00,-RA,,0.33,0.0,WeatherDisplay:10.37,2013-02-14 16:45:00,
2013-02-14 18:50:00,46.6,42.3,29.67,NW,304,3.0,9.0,85,0.00,-RA,,0.33,0.0,WeatherDisplay:10.37,2013-02-14 16:50:00,
2013-02-14 18:55:00,46.6,42.3,29.66,WNW,303,2.0,8.0,85,0.00,-RA,,0.33,0.0,WeatherDisplay:10.37,2013-02-14 16:55:00,
2013-02-14 19:00:00,46.6,42.3,29.66,NNW,338,4.6,4.6,85,0.02,-RA,,0.33,0.0,WeatherDisplay:10.37,2013-02-14 17:00:00,
2013-02-14 19:05:00,46.6,42.3,29.66,NW,304,2.0,9.0,85,0.00,-RA,,0.33,0.0,WeatherDisplay:10.37,2013-02-14 17:05:00,
2013-02-14 19:10:00,46.6,42.3,29.66,NNW,338,5.8,5.8,85,0.02,-RA,,0.33,0.0,WeatherDisplay:10.37,2013-02-14 17:10:00,
2013-02-14 19:15:00,46.4,42.1,29.66,WNW,296,3.0,6.0,85,0.00,-RA,,0.33,0.0,WeatherDisplay:10.37,2013-02-14 17:15:00,
2013-02-14 19:20:00,46.3,42.1,29.67,WNW,297,2.0,6.0,85,0.00,RA,,0.33,0.0,WeatherDisplay:10.37,2013-02-14 17:20:00,
2013-02-14 19:25:00,46.2,42.0,29.66,WNW,297,1.0,7.0,85,0.00,OVC,,0.33,0.0,WeatherDisplay:10.37,2013-02-14 17:25:00,
2013-02-14 19:30:00,46.2,42.0,29.66,WNW,297,3.0,8.0,85,0.00,OVC,,0.33,0.0,WeatherDisplay:10.37,2013-02-14 17:30:00,
2013-02-14 19:35:00,46.2,42.0,29.66,NW,315,5.8,5.8,85,0.01,OVC,,0.33,0.0,WeatherDisplay:10.37,2013-02-14 17:35:00,
2013-02-14 19:40:00,46.2,42.0,29.66,WNW,297,2.0,8.0,85,0.00,OVC,,0.33,0.0,WeatherDisplay:10.37,2013-02-14 17:40:00,
2013-02-14 19:45:00,46.2,42.0,29.66,NW,315,5.8,5.8,85,0.01,OVC,,0.33,0.0,WeatherDisplay:10.37,2013-02-14 17:45:00,
2013-02-14 19:50:00,46.2,42.0,29.66,WNW,295,5.0,14.0,85,0.00,OVC,,0.33,0.0,WeatherDisplay:10.37,2013-02-14 17:50:00,
2013-02-14 19:55:00,46.2,42.0,29.66,WNW,285,3.0,10.0,85,0.00,OVC,,0.33,0.0,WeatherDisplay:10.37,2013-02-14 17:55:00,
2013-02-14 20:00:00,46.2,42.0,29.66,NW,315,6.9,6.9,85,0.00,OVC,,0.33,0.0,WeatherDisplay:10.37,2013-02-14 18:00:00,
2013-02-14 20:05:00,46.2,42.0,29.66,NW,315,3.5,3.5,85,0.00,OVC,,0.33,0.0,WeatherDisplay:10.37,2013-02-14 18:05:00,
2013-02-14 20:10:00,46.2,42.0,29.66,WNW,303,2.0,4.0,85,0.00,OVC,,0.33,0.0,WeatherDisplay:10.37,2013-02-14 18:10:00,
2013-02-14 20:15:00,46.2,42.0,29.66,WNW,299,7.0,7.0,85,0.00,OVC,,0.33,0.0,WeatherDisplay:10.37,2013-02-14 18:15:00,
2013-02-14 20:20:00,46.2,42.0,29.66,NW,315,2.5,2.5,85,0.00,OVC,,0.33,0.0,WeatherDisplay:10.37,2013-02-14 18:20:00,
2013-02-14 20:25:00,46.2,42.0,29.66,NW,306,3.0,7.0,85,0.00,OVC,,0.33,0.0,WeatherDisplay:10.37,2013-02-14 18:25:00,
2013-02-14 20:30:00,46.2,42.0,29.65,WNW,303,2.0,6.0,85,0.00,OVC,,0.33,0.0,WeatherDisplay:10.37,2013-02-14 18:30:00,
2013-02-14 20:35:00,46.2,42.0,29.65,WNW,288,2.0,6.0,85,0.00,OVC,,0.33,0.0,WeatherDisplay:10.37,2013-02-14 18:35:00,
2013-02-14 20:40:00,46.2,42.0,29.65,WNW,292,3.5,3.5,85,0.00,OVC,,0.33,0.0,WeatherDisplay:10.37,2013-02-14 18:40:00,
2013-02-14 20:45:00,46.2,42.0,29.65,WNW,301,3.0,6.0,85,0.00,OVC,,0.33,0.0,WeatherDisplay:10.37,2013-02-14 18:45:00,
2013-02-14 20:50:00,46.2,42.0,29.65,WNW,300,1.0,7.0,85,0.00,OVC,,0.33,0.0,WeatherDisplay:10.37,2013-02-14 18:50:00,
2013-02-14 20:55:00,46.2,42.0,29.65,WNW,289,2.0,8.0,85,0.00,OVC,,0.33,0.0,WeatherDisplay:10.37,2013-02-14 18:55:00,
2013-02-14 21:00:00,46.2,42.0,29.65,WNW,292,3.5,3.5,85,0.00,OVC,,0.33,0.0,WeatherDisplay:10.37,2013-02-14 19:00:00,
2013-02-14 21:05:00,46.2,42.0,29.65,NW,310,2.0,5.0,85,0.00,OVC,,0.33,0.0,WeatherDisplay:10.37,2013-02-14 19:05:00,
2013-02-14 21:10:00,46.2,42.0,29.65,NW,315,4.6,4.6,85,0.00,OVC,,0.33,0.0,WeatherDisplay:10.37,2013-02-14 19:10:00,
2013-02-14 21:15:00,46.4,42.1,29.65,NW,315,8.3,8.3,85,0.00,OVC,,0.33,0.0,WeatherDisplay:10.37,2013-02-14 19:15:00,
2013-02-14 21:20:00,46.4,42.2,29.65,WNW,303,1.0,8.0,85,0.00,OVC,,0.33,0.0,WeatherDisplay:10.37,2013-02-14 19:20:00,
2013-02-14 21:25:00,46.6,42.3,29.65,NW,315,5.8,5.8,85,0.00,OVC,,0.33,0.0,WeatherDisplay:10.37,2013-02-14 19:25:00,
2013-02-14 21:30:00,46.6,42.3,29.65,NNW,338,4.7,4.7,85,0.00,OVC,,0.33,0.0,WeatherDisplay:10.37,2013-02-14 19:30:00,
2013-02-14 21:35:00,46.6,42.3,29.65,NW,315,3.5,3.5,85,0.00,BKN,,0.33,0.0,WeatherDisplay:10.37,2013-02-14 19:35:00,
2013-02-14 21:40:00,46.6,42.3,29.65,WNW,292,6.9,6.9,85,0.00,BKN,,0.33,0.0,WeatherDisplay:10.37,2013-02-14 19:40:00,
2013-02-14 21:45:00,46.6,42.0,29.65,WNW,303,1.0,7.0,84,0.00,BKN,,0.33,0.0,WeatherDisplay:10.37,2013-02-14 19:45:00,
2013-02-14 21:50:00,46.6,42.0,29.65,NNW,338,5.8,5.8,84,0.00,BKN,,0.33,0.0,WeatherDisplay:10.37,2013-02-14 19:50:00,
2013-02-14 21:55:00,46.6,42.0,29.65,NW,315,4.6,4.6,84,0.00,BKN,,0.33,0.0,WeatherDisplay:10.37,2013-02-14 19:55:00,
2013-02-14 22:00:00,46.6,42.0,29.65,WNW,292,1.1,1.1,84,0.00,BKN,,0.33,0.0,WeatherDisplay:10.37,2013-02-14 20:00:00,
2013-02-14 22:05:00,46.6,42.0,29.65,West,278,1.0,6.0,84,0.00,BKN,,0.33,0.0,WeatherDisplay:10.37,2013-02-14 20:05:00,
2013-02-14 22:10:00,46.6,42.0,29.65,NW,315,9.2,9.2,84,0.00,BKN,,0.33,0.0,WeatherDisplay:10.37,2013-02-14 20:10:00,
2013-02-14 22:15:00,46.6,42.0,29.65,NW,315,6.9,6.9,84,0.00,BKN,,0.33,0.0,WeatherDisplay:10.37,2013-02-14 20:15:00,
2013-02-14 22:20:00,46.6,42.0,29.65,NNW,338,3.5,3.5,84,0.00,BKN,,0.33,0.0,WeatherDisplay:10.37,2013-02-14 20:20:00,
2013-02-14 22:25:00,46.6,42.0,29.65,NW,315,4.6,4.6,84,0.00,BKN,,0.33,0.0,WeatherDisplay:10.37,2013-02-14 20:25:00,
2013-02-14 22:30:00,46.6,42.0,29.65,SSW,202,3.5,3.5,84,0.00,BKN,,0.33,0.0,WeatherDisplay:10.37,2013-02-14 20:30:00,
2013-02-14 22:35:00,46.6,42.0,29.65,WNW,300,3.0,8.0,84,0.00,BKN,,0.33,0.0,WeatherDisplay:10.37,2013-02-14 20:35:00,
2013-02-14 22:40:00,46.6,42.0,29.65,North,0,10.4,10.4,84,0.00,BKN,,0.33,0.0,WeatherDisplay:10.37,2013-02-14 20:40:00,
2013-02-14 22:45:00,46.8,42.2,29.65,West,270,4.6,4.7,84,0.00,BKN,,0.33,0.0,WeatherDisplay:10.37,2013-02-14 20:45:00,
2013-02-14 22:50:00,46.8,42.2,29.65,NW,315,2.3,2.8,84,0.00,BKN,,0.33,0.0,WeatherDisplay:10.37,2013-02-14 20:50:00,
2013-02-14 22:55:00,46.8,42.2,29.65,WSW,248,5.8,6.4,84,0.00,BKN,,0.33,0.0,WeatherDisplay:10.37,2013-02-14 20:55:00,
2013-02-14 23:00:00,46.8,42.2,29.65,NNW,338,8.1,8.1,84,0.00,BKN,,0.33,0.0,WeatherDisplay:10.37,2013-02-14 21:00:00,
2013-02-14 23:05:00,46.7,42.1,29.65,NW,317,6.0,9.0,84,0.00,BKN,,0.33,0.0,WeatherDisplay:10.37,2013-02-14 21:05:00,
2013-02-14 23:10:00,46.6,41.7,29.64,NW,315,7.4,7.4,83,0.00,BKN,,0.33,0.0,WeatherDisplay:10.37,2013-02-14 21:10:00,
2013-02-14 23:15:00,46.8,41.9,29.64,NNW,338,4.6,4.6,83,0.00,BKN,,0.33,0.0,WeatherDisplay:10.37,2013-02-14 21:15:00,
2013-02-14 23:20:00,46.8,41.9,29.64,NW,315,5.6,5.6,83,0.00,BKN,,0.33,0.0,WeatherDisplay:10.37,2013-02-14 21:20:00,
2013-02-14 23:25:00,46.9,42.0,29.64,West,270,2.3,2.3,83,0.00,BKN,,0.33,0.0,WeatherDisplay:10.37,2013-02-14 21:25:00,
2013-02-14 23:30:00,46.9,41.7,29.63,NW,315,4.6,4.6,82,0.00,BKN,,0.33,0.0,WeatherDisplay:10.37,2013-02-14 21:30:00,
2013-02-14 23:35:00,46.9,41.7,29.64,NNW,338,5.8,5.8,82,0.00,BKN,,0.33,0.0,WeatherDisplay:10.37,2013-02-14 21:35:00,
2013-02-14 23:40:00,46.9,41.7,29.63,WSW,248,2.2,0.0,82,0.00,BKN,,0.33,0.0,WeatherDisplay:10.37,2013-02-14 21:40:00,
2013-02-14 23:45:00,46.9,41.7,29.64,SSW,202,2.3,2.3,82,0.00,BKN,,0.33,0.0,WeatherDisplay:10.37,2013-02-14 21:45:00,
2013-02-14 23:50:00,46.9,41.7,29.64,North,356,2.0,6.0,82,0.00,BKN,,0.33,0.0,WeatherDisplay:10.37,2013-02-14 21:50:00,
2013-02-14 23:55:00,46.9,41.7,29.64,East,90,0.0,0.0,82,0.00,BKN,,0.33,0.0,WeatherDisplay:10.37,2013-02-14 21:55:00,